• In Belarus
  • List of Countries
  • For 7 days
  • Water Temperature
  • Satellite Maps
  • Weather Map
  • Weather Widgets
  • user-avatar
    Login

    Hourly Weather Ischgl

    Today, 16 December, Sunday

    Time Temperature Precipitation Wind Pressure Humidity
    00:00 -15°C° 0 mm 2 mps 567 mmHg 47%
    01:00 -14°C° 0 mm 2 mps 567 mmHg 46%
    02:00 -14°C° 0.1 mm 2 mps 567 mmHg 53%
    03:00 -13°C° 0.1 mm 2 mps 568 mmHg 60%
    04:00 -12°C° 0.1 mm 2 mps 568 mmHg 67%
    05:00 -12°C° 0.8 mm 2 mps 568 mmHg 75%
    06:00 -10°C° 0.8 mm 2 mps 568 mmHg 82%
    07:00 -10°C° 0.8 mm 2 mps 568 mmHg 90%
    08:00 -9°C° 0.3 mm 2 mps 568 mmHg 89%
    09:00 -8°C° 0.3 mm 2 mps 569 mmHg 87%
    10:00 -7°C° 0.3 mm 2 mps 569 mmHg 86%
    11:00 -6°C° 0.1 mm 2 mps 569 mmHg 86%
    12:00 -4°C° 0.1 mm 1 mps 570 mmHg 86%
    13:00 -3°C° 0.1 mm 1 mps 570 mmHg 86%
    14:00 -4°C° 0.1 mm 1 mps 570 mmHg 88%
    15:00 -4°C° 0.1 mm 1 mps 569 mmHg 90%
    16:00 -6°C° 0.1 mm 1 mps 569 mmHg 91%
    17:00 -7°C° 0.2 mm 1 mps 569 mmHg 92%
    18:00 -7°C° 0.2 mm 0 mps 569 mmHg 92%
    19:00 -8°C° 0.2 mm 0 mps 568 mmHg 93%
    20:00 -8°C° 0.3 mm 1 mps 569 mmHg 93%
    21:00 -8°C° 0.3 mm 1 mps 569 mmHg 94%
    22:00 -8°C° 0.3 mm 1 mps 569 mmHg 94%
    23:00 -8°C° 0.3 mm 1 mps 569 mmHg 94%

    Tomorrow, 17 December, Monday

    Time Temperature Precipitation Wind Pressure Humidity
    00:00 -8°C° 0.3 mm 1 mps 569 mmHg 94%
    01:00 -8°C° 0.3 mm 1 mps 569 mmHg 94%
    02:00 -8°C° 0.1 mm 1 mps 569 mmHg 93%
    03:00 -9°C° 0.1 mm 1 mps 569 mmHg 93%
    04:00 -9°C° 0.1 mm 1 mps 568 mmHg 92%
    05:00 -10°C° 0 mm 1 mps 568 mmHg 92%
    06:00 -10°C° 0 mm 1 mps 569 mmHg 92%
    07:00 -10°C° 0 mm 1 mps 569 mmHg 92%
    08:00 -12°C° 0 mm 2 mps 569 mmHg 91%
    09:00 -10°C° 0 mm 2 mps 570 mmHg 89%
    10:00 -9°C° 0 mm 2 mps 571 mmHg 88%
    11:00 -8°C° 0 mm 2 mps 572 mmHg 87%
    12:00 -7°C° 0 mm 2 mps 572 mmHg 87%
    13:00 -7°C° 0 mm 2 mps 572 mmHg 86%
    14:00 -7°C° 0.1 mm 2 mps 573 mmHg 88%
    15:00 -8°C° 0.1 mm 2 mps 573 mmHg 90%
    16:00 -8°C° 0.1 mm 2 mps 573 mmHg 93%
    17:00 -9°C° 0.1 mm 2 mps 573 mmHg 93%
    18:00 -9°C° 0.1 mm 2 mps 574 mmHg 93%
    19:00 -10°C° 0.1 mm 2 mps 574 mmHg 94%
    20:00 -12°C° 0 mm 2 mps 574 mmHg 94%
    21:00 -12°C° 0 mm 2 mps 574 mmHg 94%
    22:00 -11°C° 0 mm 1 mps 574 mmHg 94%
    23:00 -11°C° 0 mm 1 mps 574 mmHg 93%

    Day after tomorrow, 18 December, Tuesday

    Time Temperature Precipitation Wind Pressure Humidity
    00:00 -11°C° 0 mm 1 mps 574 mmHg 92%
    01:00 -12°C° 0 mm 1 mps 574 mmHg 92%
    02:00 -12°C° 0 mm 1 mps 573 mmHg 89%
    03:00 -14°C° 0 mm 2 mps 573 mmHg 86%
    04:00 -14°C° 0 mm 2 mps 573 mmHg 83%
    05:00 -14°C° 0 mm 2 mps 573 mmHg 77%
    06:00 -12°C° 0 mm 1 mps 573 mmHg 71%
    07:00 -12°C° 0 mm 1 mps 573 mmHg 66%
    08:00 -13°C° 0 mm 2 mps 574 mmHg 64%
    09:00 -12°C° 0 mm 2 mps 574 mmHg 62%
    10:00 -9°C° 0 mm 2 mps 575 mmHg 61%
    11:00 -8°C° 0 mm 2 mps 575 mmHg 63%
    12:00 -6°C° 0 mm 2 mps 575 mmHg 65%
    13:00 -5°C° 0 mm 2 mps 576 mmHg 68%
    14:00 -6°C° 0 mm 2 mps 575 mmHg 68%
    15:00 -7°C° 0 mm 2 mps 574 mmHg 67%
    16:00 -9°C° 0 mm 2 mps 573 mmHg 67%
    17:00 -10°C° 0 mm 2 mps 573 mmHg 64%
    18:00 -10°C° 0 mm 2 mps 572 mmHg 61%
    19:00 -13°C° 0 mm 3 mps 572 mmHg 57%
    20:00 -13°C° 0 mm 3 mps 572 mmHg 55%
    21:00 -13°C° 0 mm 3 mps 572 mmHg 52%
    22:00 -13°C° 0 mm 3 mps 572 mmHg 50%
    23:00 -13°C° 0 mm 3 mps 571 mmHg 49%

    19 December, Wednesday

    Time Temperature Precipitation Wind Pressure Humidity
    00:00 -13°C° 0 mm 3 mps 571 mmHg 49%
    01:00 -13°C° 0 mm 3 mps 571 mmHg 48%
    02:00 -10°C° 0 mm 2 mps 571 mmHg 49%
    03:00 -10°C° 0 mm 2 mps 571 mmHg 49%
    04:00 -10°C° 0 mm 2 mps 571 mmHg 49%
    05:00 -10°C° 0 mm 2 mps 571 mmHg 49%
    06:00 -10°C° 0 mm 2 mps 571 mmHg 50%
    07:00 -9°C° 0 mm 2 mps 571 mmHg 50%
    08:00 -8°C° 0 mm 2 mps 572 mmHg 53%
    09:00 -8°C° 0 mm 2 mps 572 mmHg 57%
    10:00 -7°C° 0 mm 2 mps 572 mmHg 61%
    11:00 -6°C° 0 mm 2 mps 572 mmHg 64%
    12:00 -5°C° 0 mm 2 mps 572 mmHg 68%
    13:00 -5°C° 0 mm 2 mps 572 mmHg 71%
    14:00 -5°C° 0 mm 2 mps 572 mmHg 74%
    15:00 -6°C° 0 mm 2 mps 571 mmHg 77%
    16:00 -6°C° 0 mm 2 mps 571 mmHg 80%
    17:00 -7°C° 0.1 mm 2 mps 571 mmHg 82%
    18:00 -7°C° 0.1 mm 2 mps 570 mmHg 84%
    19:00 -8°C° 0.1 mm 2 mps 570 mmHg 87%
    20:00 -8°C° 0.1 mm 2 mps 570 mmHg 87%
    21:00 -9°C° 0.1 mm 2 mps 570 mmHg 88%
    22:00 -9°C° 0.1 mm 2 mps 570 mmHg 89%
    23:00 -9°C° 0.4 mm 2 mps 570 mmHg 90%

    20 December, Thursday

    Time Temperature Precipitation Wind Pressure Humidity
    00:00 -9°C° 0.4 mm 2 mps 570 mmHg 91%
    01:00 -9°C° 0.4 mm 2 mps 570 mmHg 92%
    02:00 -7°C° 1 mm 1 mps 570 mmHg 93%
    03:00 -7°C° 1 mm 1 mps 569 mmHg 95%
    04:00 -7°C° 1 mm 1 mps 569 mmHg 96%
    05:00 -7°C° 0.9 mm 1 mps 569 mmHg 96%
    06:00 -7°C° 0.9 mm 1 mps 569 mmHg 96%
    07:00 -8°C° 0.9 mm 1 mps 569 mmHg 96%
    08:00 -7°C° 0.9 mm 1 mps 570 mmHg 96%
    09:00 -8°C° 0.9 mm 2 mps 570 mmHg 96%
    10:00 -8°C° 0.9 mm 2 mps 570 mmHg 95%
    11:00 -8°C° 1 mm 2 mps 570 mmHg 95%
    12:00 -9°C° 1 mm 3 mps 570 mmHg 95%
    13:00 -9°C° 1 mm 3 mps 570 mmHg 95%
    14:00 -9°C° 0.7 mm 3 mps 570 mmHg 95%
    15:00 -9°C° 0.7 mm 3 mps 570 mmHg 95%
    16:00 -10°C° 0.7 mm 3 mps 570 mmHg 95%
    17:00 -10°C° 0.3 mm 3 mps 571 mmHg 95%
    18:00 -10°C° 0.3 mm 3 mps 571 mmHg 95%
    19:00 -12°C° 0.3 mm 3 mps 571 mmHg 96%
    20:00 -10°C° 0.1 mm 2 mps 571 mmHg 95%
    21:00 -12°C° 0.1 mm 2 mps 571 mmHg 95%
    22:00 -12°C° 0.1 mm 2 mps 571 mmHg 95%
    23:00 -13°C° 0 mm 2 mps 571 mmHg 95%

    21 December, Friday

    Time Temperature Precipitation Wind Pressure Humidity
    00:00 -14°C° 0 mm 2 mps 571 mmHg 94%
    01:00 -14°C° 0 mm 2 mps 571 mmHg 94%
    02:00 -15°C° 0 mm 2 mps 570 mmHg 93%
    03:00 -16°C° 0 mm 2 mps 570 mmHg 92%
    04:00 -16°C° 0 mm 2 mps 570 mmHg 91%
    05:00 -16°C° 0 mm 2 mps 570 mmHg 89%
    06:00 -16°C° 0 mm 2 mps 570 mmHg 86%
    07:00 -16°C° 0 mm 2 mps 570 mmHg 84%
    08:00 -15°C° 0 mm 2 mps 571 mmHg 81%
    09:00 -13°C° 0 mm 2 mps 572 mmHg 79%
    10:00 -12°C° 0 mm 2 mps 572 mmHg 76%
    11:00 -9°C° 0 mm 2 mps 573 mmHg 74%
    12:00 -7°C° 0 mm 1 mps 573 mmHg 73%
    13:00 -4°C° 0 mm 1 mps 573 mmHg 71%
    14:00 -6°C° 0 mm 1 mps 573 mmHg 72%
    15:00 -7°C° 0 mm 2 mps 572 mmHg 73%
    16:00 -8°C° 0 mm 2 mps 572 mmHg 74%
    17:00 -8°C° 0.1 mm 2 mps 572 mmHg 75%
    18:00 -8°C° 0.1 mm 2 mps 572 mmHg 76%
    19:00 -9°C° 0.1 mm 3 mps 572 mmHg 77%
    20:00 -9°C° 0.5 mm 3 mps 572 mmHg 79%
    21:00 -9°C° 0.5 mm 3 mps 572 mmHg 80%
    22:00 -9°C° 0.5 mm 3 mps 572 mmHg 82%
    23:00 -8°C° 0.1 mm 2 mps 572 mmHg 82%
    Show more